[[{"header":{"parameterUnit":"m.s-1","parameterCategory":1,"la1":30.2992,"la2":30.254,"lo1":-89.0895,"lo2":-89.0443,"dy":0.0025,"dx":0.0025,"nx":19,"ny":19,"refTime":"2026-03-14T21:00:00:Z","depth":0,"parameterNumber":2,"parameterNumberName":"U-component_of_WINDS"},"data":[0,0,0,-2.2089,-2.2091,-2.2231,-2.2232,-2.24,-2.2402,0,0,0,0,0,0,0,0,0,0,0,-2.2041,-2.2042,-2.2088,-2.2092,-2.2231,-2.2232,-2.24,-2.2402,0,0,0,0,0,0,0,0,0,0,0,-2.2041,-2.2042,-2.2043,-2.2092,-2.2231,-2.2232,-2.24,-2.2298,0,0,0,0,0,0,0,0,0,0,-2.2164,-2.2114,-2.2042,-2.2043,-2.2093,-2.2231,-2.2232,-2.2293,-2.2304,-2.2333,0,-2.2356,0,-2.2382,-2.2412,-2.2413,0,0,0,-2.2096,-2.2105,-2.2148,-2.2043,-2.2094,-2.2231,-2.217,-2.2299,-2.2312,-2.2347,-2.2359,-2.2365,-2.2384,-2.2413,-2.2414,-2.2562,-2.2563,0,0,-2.2088,-2.2063,-2.214,-2.2156,-2.2134,-2.2165,-2.2174,-2.2307,-2.2318,-2.236,-2.237,-2.2387,-2.2414,-2.2415,-2.2562,-2.2562,0,0,0,-2.2063,-2.2058,-2.2098,-2.2149,-2.2175,-2.2169,-2.2179,-2.2312,-2.2327,-2.2372,-2.2389,-2.2415,-2.2417,-2.2561,-2.2562,-2.2559,0,0,0,-2.2059,-2.2043,-2.2094,-2.208,-2.2172,-2.2245,-2.2181,-2.2318,-2.2334,-2.2388,-2.2415,-2.2419,-2.2561,-2.2562,-2.2558,-2.2562,0,0,0,-2.2034,-2.204,-2.2058,-2.2078,-2.2138,-2.2244,-2.2267,-2.2322,-2.2345,-2.2413,-2.2419,-2.2561,-2.2562,-2.2558,-2.2561,-2.2592,0,0,0,-2.2001,-2.2055,-2.2058,-2.2126,-2.2136,-2.2242,-2.2266,-2.2347,-2.2405,-2.2416,-2.2561,-2.2562,-2.2557,-2.256,-2.259,-2.2612,-2.2619,0,0,-2.2055,-2.2061,-2.2103,-2.211,-2.2208,-2.2223,-2.2321,-2.2399,-2.2429,-2.2516,-2.252,-2.2559,-2.256,-2.2591,-2.2671,-2.2676,0,0,0,-2.2112,-2.2141,-2.2173,-2.2227,-2.2288,-2.234,-2.2405,-2.2434,-2.2509,-2.2469,-2.2581,-2.2583,-2.2602,-2.2613,-2.2617,-2.2634,-2.2567,-2.2567,-2.2567,-2.2152,-2.2187,-2.2258,-2.231,-2.2362,-2.2429,-2.2474,-2.2524,-2.2545,-2.2571,-2.2596,-2.264,-2.2652,-2.2656,-2.2673,-2.2613,-2.2613,-2.2613,-2.2613,-2.2233,-2.2279,-2.2306,-2.2384,-2.2421,-2.2487,-2.2553,-2.2566,-2.2632,-2.2625,-2.2643,-2.2629,-2.2661,-2.2678,-2.2613,-2.2613,-2.2613,-2.2613,-2.2613,-2.2261,-2.2289,-2.2323,-2.2404,-2.2463,-2.2514,-2.2576,-2.2609,-2.2639,-2.2658,-2.2687,-2.2687,-2.2689,-2.267,-2.267,-2.267,-2.267,-2.2671,-2.2671,-2.2275,-2.2314,-2.2362,-2.2431,-2.2469,-2.2523,-2.2591,-2.263,-2.2681,-2.2699,-2.2699,-2.2716,-2.2658,-2.2641,-2.2673,-2.2673,-2.2672,-2.2672,-2.2672,-2.234,-2.2331,-2.2405,-2.2443,-2.2525,-2.258,-2.2621,-2.2697,-2.2734,-2.2763,-2.2777,-2.273,-2.2737,-2.2734,-2.272,-2.277,-2.277,-2.2771,-2.2771,-2.2362,-2.2369,-2.2451,-2.251,-2.2572,-2.2616,-2.2697,-2.2751,-2.2804,-2.2829,-2.2827,-2.2812,-2.2808,-2.2818,-2.2813,-2.28,-2.287,-2.287,-2.287,-2.2402,-2.2417,-2.248,-2.2532,-2.2599,-2.2655,-2.2732,-2.2799,-2.2858,-2.2875,-2.2848,-2.2844,-2.2821,-2.2812,-2.2825,-2.2817,-2.2794,0,0]},{"header":{"parameterUnit":"m.s-1","parameterCategory":1,"la1":30.2992,"la2":30.254,"lo1":-89.0895,"lo2":-89.0443,"dy":0.0025,"dx":0.0025,"nx":19,"ny":19,"refTime":"2026-03-14T21:00:00:Z","depth":0,"parameterNumber":3,"parameterNumberName":"V-component_of_WINDS"},"data":[0,0,0,5.7803,5.7805,5.7891,5.7892,5.7982,5.7982,0,0,0,0,0,0,0,0,0,0,0,5.7767,5.7767,5.7803,5.7805,5.7891,5.7892,5.7981,5.7982,0,0,0,0,0,0,0,0,0,0,0,5.7766,5.7767,5.7767,5.7805,5.7891,5.7892,5.7981,5.7923,0,0,0,0,0,0,0,0,0,0,5.7843,5.7798,5.7767,5.7767,5.7806,5.7891,5.7892,5.7921,5.7927,5.7934,0,5.7939,0,5.7962,5.7987,5.7987,0,0,0,5.7813,5.7793,5.7827,5.7767,5.7807,5.7891,5.7854,5.7924,5.7931,5.7942,5.7941,5.7944,5.7964,5.7988,5.7988,5.8012,5.8012,0,0,5.7808,5.7775,5.7822,5.7831,5.7817,5.7852,5.7857,5.7929,5.7924,5.7941,5.7947,5.7965,5.7988,5.7989,5.8012,5.8012,0,0,0,5.7789,5.7771,5.7804,5.7826,5.7844,5.7854,5.786,5.7921,5.7934,5.7948,5.7966,5.7988,5.7989,5.8012,5.8012,5.797,0,0,0,5.7787,5.7761,5.7802,5.7782,5.7842,5.7883,5.785,5.7929,5.7938,5.7966,5.7989,5.799,5.8013,5.8012,5.7972,5.7955,0,0,0,5.7765,5.7758,5.7767,5.778,5.7817,5.7883,5.7901,5.7932,5.7949,5.7987,5.799,5.8013,5.8012,5.7973,5.7958,5.7954,0,0,0,5.7731,5.7725,5.7766,5.7766,5.7816,5.7857,5.7901,5.7932,5.796,5.7989,5.8013,5.8012,5.7974,5.7959,5.7955,5.7945,5.7938,0,0,5.7705,5.772,5.7724,5.7763,5.7789,5.7846,5.7866,5.792,5.7952,5.799,5.7991,5.7971,5.7958,5.7954,5.7907,5.79,0,0,0,5.7704,5.7706,5.772,5.7747,5.7791,5.7829,5.7884,5.7906,5.794,5.7966,5.7969,5.7962,5.7961,5.7958,5.7953,5.7956,5.8009,5.8009,5.8009,5.7618,5.7664,5.7673,5.773,5.7755,5.7817,5.7841,5.788,5.7914,5.7915,5.7926,5.7892,5.7887,5.7884,5.7886,5.7924,5.7924,5.7924,5.7924,5.7585,5.7596,5.7649,5.7677,5.7725,5.7748,5.7808,5.7832,5.7861,5.7886,5.7888,5.7912,5.7876,5.788,5.7921,5.7921,5.7922,5.7922,5.7922,5.7534,5.7548,5.7577,5.7624,5.7655,5.7713,5.774,5.7782,5.7821,5.7822,5.7841,5.7842,5.7849,5.7828,5.7828,5.7828,5.7828,5.7828,5.7828,5.7471,5.7505,5.7524,5.7575,5.76,5.7639,5.7703,5.7728,5.7767,5.7796,5.7796,5.7832,5.7864,5.7872,5.7826,5.7827,5.7827,5.7827,5.7827,5.7421,5.7441,5.747,5.7496,5.7561,5.7591,5.7646,5.7696,5.7723,5.7736,5.7773,5.779,5.7807,5.7812,5.7819,5.7762,5.7762,5.7762,5.7762,5.7379,5.7394,5.7437,5.7476,5.7519,5.7574,5.7607,5.7658,5.7713,5.7733,5.7747,5.776,5.7762,5.7779,5.7784,5.7791,5.7729,5.7729,5.7729,5.7353,5.7375,5.7394,5.7452,5.7508,5.7555,5.7588,5.7631,5.7697,5.7729,5.775,5.7752,5.7772,5.7776,5.7807,5.7814,5.7827,0,0]}]]